Other Surface Observations
Issued by NWS Jacksonville, FL

Home | Current Version | Previous Version | Text Only | Print | Product List | Glossary On
Versions: 1 2 3 4 5 6 7 8 9 10 11 12 13 14 15 16 17 18 19 20 21 22 23 24 25 26 27 28 29 30 31 32 33 34 35 36 37 38 39 40 41 42 43 44 45 46 47 48 49 50
000
SXUS52 KJAX 291810
OSOJAX
OTHER SURFACE OBSERVATIONS
NATIONAL WEATHER SERVICE JACKSONVILLE FL
200 PM EDT FRI AUG 29 2014

FLZ020>025-030>033-035>038-040-291900-
...FLORIDA...

CITY           SKY/WX    TMP DP  RH WIND       PRES   REMARKS
CECIL FIELD    PTSUNNY   90  72  55 E6        30.05F
HERLONG FIELD  NOT AVBL
FERNANDINA BCH NOT AVBL
LAKE CITY      CLOUDY    90  70  51 SE6       30.05S
JUNIPER SPGS   NOT AVBL
BUNNELL        PTCLDY    90  77  66 E10       30.05S HX 102
KEYSTONE HGTS    N/A    N/A N/A N/A MISG        N/A
$$

GAZ132>136-149>154-162>166-291900-
...GEORGIA...

CITY           SKY/WX    TMP DP  RH WIND       PRES   REMARKS
JESUP            N/A     95  64  36 E5        30.05F
HOMERVILLE     FAIR      95  64  36 SE5       30.04F
SWAINSBORO     FAIR      97  63  32 SE6       30.06F
CORDELE        NOT AVBL
$$

PLEASE NOTE:  THESE OBSERVATIONS ARE NOT QUALITY CONTROLLED AND MAY
NOT BE AVAILABLE AT ALL TIMES.
$$


USA.gov is the U.S. government's official web portal to all federal, state and local government web resources and services.